Weather History for PAGY - April, 2013

Change the Weather History Date:

Wednesday, April 24, 2013

  Actual Average Record
Temperature  
Mean Temperature 42 °F -  
Max Temperature 45 °F 49 °F 73 °F (2005)
Min Temperature 39 °F 34 °F 27 °F (1970)
Degree Days  
Heating Degree Days 23    
Moisture  
Dew Point 36 °F    
Average Humidity 79    
Maximum Humidity 87    
Minimum Humidity 67    
Precipitation  
Precipitation 0.19 in - - ()
Sea Level Pressure  
Sea Level Pressure 30.01 in    
Wind  
Wind Speed 18 mph (SSW)    
Max Wind Speed 26 mph    
Max Gust Speed 37 mph    
Visibility 9 miles    
Events Rain    
Averages and records for this station are not official NWS values.
T = Trace of Precipitation, MM = Missing Value Source: NWS Daily Summary

Daily Weather History Graph

Daily Weather History Graph

Search for Another Location

Airport or City:

Trip Planner

Search our weather history database for the weather conditions in past years. The results will help you decide how hot, cold, wet, or windy it might be!

Date:

Astronomy

Apr. 24, 2013 Rise Set
Actual Time 5:19 AM AKDT 8:40 PM AKDT
Civil Twilight 4:31 AM AKDT 9:29 PM AKDT
Nautical Twilight 3:22 AM AKDT 10:39 PM AKDT
Astronomical Twilight 1:31 AM AKDT 12:26 AM AKDT
Moon 7:47 PM AKDT (4/24) 4:44 AM AKDT (4/24)
Length of Visible Light 16h 58m
Length of Day
15h 21m
Waxing Gibbous, 99% of the Moon is Illuminated
Apr 24
Waxing Gibbous
Apr 25
Full
May 2
Last Quarter
May 9
New
May 17
First Quarter

Hourly Weather History & Observations

Time (AKDT) Temp. Windchill Dew Point Humidity Pressure Visibility Wind Dir Wind Speed Gust Speed Precip Events Conditions
12:53 AM 42.1 °F 34.2 °F 32.0 °F 67% 30.36 in 10.0 mi South 16.1 mph 21.9 mph N/A   Overcast
1:53 AM 41.0 °F 32.8 °F 33.1 °F 73% 30.32 in 10.0 mi SSW 16.1 mph 26.5 mph N/A   Overcast
2:53 AM 41.0 °F 32.8 °F 33.1 °F 73% 30.30 in 10.0 mi SSW 16.1 mph 24.2 mph N/A   Overcast
3:53 AM 39.9 °F 31.4 °F 34.0 °F 79% 30.27 in 10.0 mi SSW 16.1 mph 23.0 mph N/A   Overcast
4:16 AM 39.2 °F 30.5 °F 33.8 °F 81% 30.25 in 10.0 mi SSW 16.1 mph - N/A   Overcast
4:53 AM 39.9 °F 31.4 °F 35.1 °F 83% 30.24 in 9.0 mi SSW 16.1 mph 25.3 mph 0.00 in Rain Light Rain
5:53 AM 39.9 °F 31.4 °F 35.1 °F 83% 30.20 in 10.0 mi SSW 16.1 mph 23.0 mph 0.01 in Rain Light Rain
6:20 AM 39.2 °F 30.8 °F 35.6 °F 87% 30.20 in 8.0 mi SSW 15.0 mph 25.3 mph 0.01 in Rain Light Rain
6:53 AM 39.9 °F 31.4 °F 35.1 °F 83% 30.18 in 7.0 mi SSW 16.1 mph 25.3 mph 0.01 in   Overcast
7:53 AM 39.9 °F 30.5 °F 35.1 °F 83% 30.15 in 7.0 mi SSW 19.6 mph 31.1 mph 0.00 in   Overcast
8:53 AM 41.0 °F 31.4 °F 36.0 °F 82% 30.12 in 10.0 mi SSW 21.9 mph 29.9 mph 0.00 in   Overcast
9:53 AM 41.0 °F 30.9 °F 36.0 °F 82% 30.07 in 10.0 mi SSW 24.2 mph 32.2 mph N/A   Overcast
10:53 AM 42.1 °F 32.1 °F 36.0 °F 79% 30.04 in 10.0 mi SSW 25.3 mph 33.4 mph N/A   Overcast
11:20 AM 42.8 °F 33.1 °F 35.6 °F 76% 30.01 in 10.0 mi SSW 25.3 mph - N/A   Overcast
11:30 AM 42.8 °F 33.1 °F 35.6 °F 76% 30.01 in 10.0 mi SSW 25.3 mph 36.8 mph N/A   Overcast
11:53 AM 42.1 °F 31.9 °F 36.0 °F 79% 29.99 in 10.0 mi SSW 26.5 mph 34.5 mph N/A   Overcast
12:53 PM 43.0 °F 34.2 °F 36.0 °F 76% 29.96 in 10.0 mi SSW 20.7 mph 32.2 mph N/A   Overcast
1:53 PM 44.1 °F 35.0 °F 36.0 °F 73% 29.93 in 10.0 mi SSW 24.2 mph 33.4 mph N/A   Overcast
2:53 PM 45.0 °F 37.6 °F 36.0 °F 71% 29.91 in 10.0 mi SSW 17.3 mph 27.6 mph N/A   Overcast
3:53 PM 44.1 °F 35.4 °F 36.0 °F 73% 29.89 in 10.0 mi SSW 21.9 mph 32.2 mph N/A   Overcast
4:53 PM 44.1 °F 36.2 °F 36.0 °F 73% 29.86 in 10.0 mi SSW 18.4 mph 29.9 mph N/A   Overcast
5:53 PM 44.1 °F 35.0 °F 35.1 °F 71% 29.83 in 10.0 mi SSW 24.2 mph 28.8 mph N/A   Overcast
6:53 PM 43.0 °F 35.1 °F 36.0 °F 76% 29.81 in 10.0 mi SSW 17.3 mph 27.6 mph 0.00 in Rain Light Rain
7:53 PM 42.1 °F 33.6 °F 37.0 °F 82% 29.79 in 6.0 mi SSW 18.4 mph 27.6 mph 0.01 in Rain Light Rain
8:53 PM 42.1 °F 33.9 °F 37.0 °F 82% 29.77 in 10.0 mi SSW 17.3 mph 27.6 mph 0.02 in Rain Light Rain
9:53 PM 42.1 °F 34.5 °F 37.0 °F 82% 29.75 in 9.0 mi SSW 15.0 mph 25.3 mph 0.02 in Rain Light Rain
10:30 PM 41.0 °F 34.3 °F 37.4 °F 87% 29.74 in 8.0 mi SSW 11.5 mph 21.9 mph 0.03 in Rain Light Rain
10:53 PM 41.0 °F 32.5 °F 37.0 °F 86% 29.73 in 7.0 mi SSW 17.3 mph 27.6 mph 0.05 in Rain Light Rain
11:53 PM 41.0 °F 34.3 °F 37.0 °F 86% 29.71 in 7.0 mi South 11.5 mph 19.6 mph 0.07 in Rain Light Rain